Volver al catálogo

THORAD DELTA 1 DEB

ActivoSSO
NORAD 8173·DEBRIS·🇺🇸 United States

Lanzado Nov 15, 1974 desde Vandenberg Space Force Base

Loading…

Próximos Pases (próximas 24 horas)

TLE

ActualizadoSource: Space-Track

Época: Sep 13, 2026, 21:21 UTC

1 08173U 74089AP  26256.88979081 -.00000005  00000-0  26488-3 0  9995
2 08173 102.0052 240.1041 0108807 318.9321  69.5265 12.51903451366092

Sigue THORAD DELTA 1 DEB en tiempo real con AllMySat

Download on the App Store